Jamestown, ND

8:50 PM CST on February 13, 2016 (GMT -0600)
Jamestown Municipal

Weather History for KJMS - May, 2014

Change the Weather History Date:

Tuesday, May 6, 2014

  Actual Average Record
Temperature  
Mean Temperature 53 °F 52 °F  
Max Temperature 60 °F 65 °F 89 °F (1934)
Min Temperature 45 °F 39 °F 20 °F (1929)
Degree Days  
Heating Degree Days 12 14  
Month to date heating degree days 108 87  
Since 1 July heating degree days 9428 8681  
Cooling Degree Days 0 0  
Month to date cooling degree days 0 0  
Year to date cooling degree days 0 2  
Growing Degree Days 2 (Base 50)    
Moisture  
Dew Point 42 °F    
Average Humidity 70    
Maximum Humidity 92    
Minimum Humidity 47    
Precipitation  
Precipitation 0.13 in 0.07 in 1.09 in (1999)
Month to date precipitation 0.13 0.43  
Year to date precipitation 3.19 3.32  
Sea Level Pressure  
Sea Level Pressure 29.81 in    
Wind  
Wind Speed 12 mph (East)    
Max Wind Speed 21 mph    
Max Gust Speed 26 mph    
Visibility 10 miles    
Events      
T = Trace of Precipitation, MM = Missing Value Source: NWS Daily Summary

Daily Weather History Graph

Daily Weather History Graph

Search for Another Location

Airport or City:

Trip Planner

Search our weather history database for the weather conditions in past years. The results will help you decide how hot, cold, wet, or windy it might be!

Date:

Astronomy

May. 06, 2014 Rise Set
Actual Time 6:11 AM CDT 8:51 PM CDT
Civil Twilight 5:37 AM CDT 9:26 PM CDT
Nautical Twilight 4:53 AM CDT 10:10 PM CDT
Astronomical Twilight 4:02 AM CDT 11:01 PM CDT
Moon 12:34 PM CDT (5/6) 2:07 AM CDT (5/6)
Length of Visible Light 15h 49m
Length of Day
14h 40m
Waxing Crescent, 46% of the Moon is Illuminated
May 6
Waxing Crescent
May 6
First Quarter
May 14
Full
May 21
Last Quarter
May 28
New

Hourly Weather History & Observations

Time (CDT) Temp. Windchill Dew Point Humidity Pressure Visibility Wind Dir Wind Speed Gust Speed Precip Events Conditions
12:56 AM 48.0 °F - 39.0 °F 71% 29.92 in 10.0 mi East 11.5 mph - N/A   Overcast
1:56 AM 46.9 °F - 37.9 °F 71% 29.89 in 10.0 mi East 16.1 mph - N/A   Overcast
6:56 AM 45.0 °F 38.2 °F 41.0 °F 86% 29.82 in 10.0 mi East 15.0 mph - 0.01 in   Overcast
7:56 AM 46.0 °F 41.0 °F 41.0 °F 83% 29.83 in 10.0 mi East 10.4 mph - N/A   Overcast
8:56 AM 46.0 °F 41.0 °F 42.1 °F 86% 29.85 in 10.0 mi ESE 10.4 mph - N/A   Overcast
9:56 AM 46.9 °F - 42.1 °F 83% 29.84 in 10.0 mi East 10.4 mph - N/A   Overcast
10:56 AM 48.0 °F - 42.1 °F 80% 29.84 in 10.0 mi East 11.5 mph - N/A   Overcast
11:56 AM 48.9 °F - 43.0 °F 80% 29.83 in 10.0 mi East 11.5 mph - N/A   Overcast
12:56 PM 54.0 °F - 46.0 °F 75% 29.81 in 10.0 mi East 10.4 mph - N/A   Overcast
1:56 PM 55.9 °F - 44.1 °F 64% 29.78 in 10.0 mi ESE 11.5 mph - N/A   Overcast
3:56 PM 59.0 °F - 39.0 °F 48% 29.76 in 10.0 mi ESE 17.3 mph - N/A   Overcast
4:56 PM 60.1 °F - 41.0 °F 49% 29.75 in 10.0 mi ESE 17.3 mph - N/A   Mostly Cloudy
5:56 PM 59.0 °F - 42.1 °F 53% 29.75 in 10.0 mi ESE 16.1 mph - N/A   Mostly Cloudy
6:56 PM 60.1 °F - 43.0 °F 53% 29.75 in 10.0 mi ESE 15.0 mph - N/A   Mostly Cloudy
7:56 PM 57.9 °F - 41.0 °F 53% 29.76 in 10.0 mi SE 11.5 mph - N/A   Clear
8:56 PM 54.0 °F - 41.0 °F 62% 29.78 in 10.0 mi ESE 9.2 mph - N/A   Partly Cloudy
9:56 PM 51.1 °F - 41.0 °F 68% 29.78 in 10.0 mi ENE 9.2 mph - N/A   Overcast
10:56 PM 48.9 °F - 45.0 °F 86% 29.78 in 10.0 mi East 12.7 mph - N/A   Overcast
11:56 PM 48.9 °F - 45.0 °F 86% 29.78 in 10.0 mi ENE 10.4 mph - N/A   Overcast